Regional Weather Roundup
Issued by NWS State College, PA

Home | Current Version | Previous Version | Graphics & Text | Print | Product List | Glossary Off
Versions: 1 2 3 4 5 6 7 8 9 10 11 12 13 14 15 16 17 18 19 20 21 22 23 24 25 26 27 28 29 30 31 32 33 34 35 36 37 38 39 40 41 42 43 44 45 46 47 48 49 50

000
ASUS41 KCTP 261903
RWRCTP

REGIONAL WEATHER ROUNDUP
NATIONAL WEATHER SERVICE STATE COLLEGE PA
200 PM EST MON JAN 26 2015

Note: "fair" indicates few or no clouds below 12,000 feet with no
significant weather and/or obstructions to visibility.

* = STATION THAT DOES NOT REPORT PRECIPITATION /E.G. RAIN...SNOW...ETC/
    THUNDER OR FOG.

PAZ002>004-007>009-013>016-020>023-029>032-262000-
WESTERN PENNSYLVANIA

CITY           SKY/WX    TMP DP  RH WIND       PRES   REMARKS
ERIE           CLOUDY    21  16  81 NE16      29.81F HAZE    WCI   7
MEADVILLE      LGT SNOW  22  16  78 N6        29.73S WCI  14
FRANKLIN*      CLOUDY    21  18  86 NE3       29.72F
NEW CASTLE     LGT SNOW  24  20  85 NW8       29.75S FOG
BEAVER COUNTY  LGT SNOW  27  23  86 N7        29.71S
BUTLER*        CLOUDY    25  19  80 N8        29.72S
PITTSBURGH INT LGT SNOW  25  22  88 N12       29.69F VSB 1   WCI  14
PITTSBURGH     LGT SNOW  28  23  81 N9        29.66F VSB 3/4
INDIANA*       FOG       25  23  93 E7        29.71F VSB 3/4
LATROBE        LGT SNOW  32  28  86 CALM      29.68F
WASHINGTON CO* CLOUDY    27  23  86 CALM      29.70S
$$

PAZ004>006-010>012-017>019-024>028-033>037-041-042-045-046-049>053-262000-
CENTRAL PENNSYLVANIA

CITY           SKY/WX    TMP DP  RH WIND       PRES   REMARKS
BRADFORD       LGT SNOW  20  14  77 E8        29.69F WCI  10
DUBOIS         LGT SNOW  21  17  84 E9        29.68F FOG     WCI  11
CLEARFIELD     LGT SNOW  19  15  84 NE10      29.73F VSB 1   WCI   7
JOHNSTOWN      LGT SNOW  24  20  84 SE3       29.62F FOG
ALTOONA        CLOUDY    21  18  88 N8        29.70F FOG     WCI  11
STATE COLLEGE  LGT SNOW  19  18  93 N7        29.76F VSB 3/4 WCI  10
WILLIAMSPORT   LGT SNOW  23  19  85 SE5       29.83F VSB 3/4
SELINSGROVE    LGT SNOW  26  22  84 N6        29.82F VSB 3/4
FT INDIANTOWN  CLOUDY    23  18  80 E8        29.79F WCI  14
CAPITAL CITY   CLOUDY    24  18  77 N8        29.80F
HARRISBURG     FLURRIES  23  18  81 NE10      29.80F WCI  12
YORK           FLURRIES  25  20  81 NE9       29.76F
$$

PAZ038>040-043-044-047-048-054-055-060>062-067>071-262000-
EASTERN PENNSYLVANIA

CITY           SKY/WX    TMP DP  RH WIND       PRES   REMARKS
SCRANTON       LGT SNOW  22  14  71 NE7       29.82S VSB 1   WCI  13
MOUNT POCONO   SNOW      15  10  80 E17       29.76S VSB 1/2 WCI  -1
ALLENTOWN      LGT SNOW  19  12  73 NE18      29.85F WCI   4
QUAKERTOWN*    NOT AVBL
READING        MIX PCPN  23  16  74 NE12      29.80F WCI  12
LANCASTER      LGT SNOW  24  19  81 NE9       29.77F WCI  14
COATESVILLE    LGT SNOW  27  25  93 NE9G21    29.74F
POTTSTOWN      LGT SNOW  24  19  81 NE13G20   29.81F WCI  12
BLUE BELL      CLOUDY    30  23  74 NE12G17   29.79F
DOYLESTOWN     LGT SNOW  22  19  89 NE13      29.81F FOG     WCI  10
WILLOW GROVE   NOT AVBL
NORTH PHILA    LGT SNOW  28  20  71 NE20G25   29.82F WCI  15
PHILADELPHIA   LGT SNOW  29  24  82 NE24      29.78F WCI  15
$$


USA.gov is the U.S. government's official web portal to all federal, state and local government web resources and services.